Showing default

INTELSAT 1-F1, 1317

Orbit data source: Space-Track

INTELSAT 1-F1, 1317 is a payload satellite owned by INTELSAT (US) in GEO that was launched on Tue, 06 Apr 1965 UTC via a THOR DELTA D launch vehicle from the Air Force Eastern Test Range (AFETR). Payloads include a variety of satellites, spacecraft, and rockets equipped with specific instruments for various scientific and technological missions. These include communications satellites like Starlink; space stations such as the ISS; scientific satellites like the Hubble; Earth observation satellites from companies like Planet Labs, Umbra, and HawkEye 360; GPS; miniature CubeSats for education and research; and military/defense satellites.

Loading next visibility...
INTELSAT 1-F1 details
Identifier
1317, 1965-028A
Orbit
GEO
Last TLE update9 hours ago
Origin
Flag of USINTELSAT (US / ITSO)
ManufacturerHughes
MissionNon-operational Civil Communications
Bus & MotorHS-303A, STARFINDER
Mass68 kg wet, 30 kg dry
Launch date (UTC)
1965-04-06 (60 years ago)
Launch vehicle
THOR DELTA D
Launch site
Air Force Eastern Test Range (AFETR)
Object type
Payload
Rocket body
Debris
Shape & HBRCyl, 0.72 m
Radar Cross Section0.543 m², Medium (>0.1 m² and < 1m²)

Expand to show TLE details & history

TLE from 9 hours ago
0 INTELSAT 1-F1
1  1317U 65028A   24361.08653786 -.00000246  00000-0  00000+0 0  9994
2  1317   5.8428  69.0368 0006771 146.9083 198.9119  1.00343000121783
Epoch: 2024-12-26T02:04Z
Definitive object data (Epoch: 2024-12-26T02:04:36.871Z)
Latitude-1.41839°
Longitude-71.32567°
Altitude35,793.343 km
Speed3.073 km/s
True Right ascension03h 39m 35s
True Declination-1° 25' 01"
Sunlit
Object was in daylight at TLE epoch
Visualization TLE readout
Latitude5.23958°
Longitude59.31803°
Altitude35,741.183 km
Speed3.077 km/s
Apparent Right ascension12h 38m 40s
Apparent Declination0° 20' 40"
Sunlit
Object is in daylight
Visualization observer readout
Local Sidereal Time10:06:28
Azimuth129.6° SE
Elevation36.877°
Doppler factor1
Orbital elements
Apogee altitude35,796.234 km
Perigee altitude35,739.16 km
Semi-major axis42,145.834 km
Eccentricity0.0006771
Inclination5.8428°
RAAN69.0368°
Arg. of periapsis146.9083°
True anomaly198.88677°
Mean anomaly198.9119°
Eccentric anomaly198.89933°
Mean motion0.25085 °/min
BSTARUnknown
Orbital period1435.13 mins
Loading historical data...
1317 neighbors
Authenticating...
Loading maneuver chart data...
Loading historical data...
Loading historical data...
Loading historical data...
Loading historical data...
Loading historical data...
Loading historical data...
Loading historical data...
Other satellites on launch #28 in the year 1965 (1965-04-06 UTC)

INTELSAT 1-F1 Visibility forecast

Observer location: undefined°, undefined

Span
Click to sort rows by Start time (UTC) header in descending order
Start Az.
Max El. time (UTC)
Max El. Az.
Max El.
End time (UTC)
End Az.
1440 mins2024-12-26 10:45:14.594Z129.616° SE2024-12-27 08:44:14.594Z129.023° SE31.255°2024-12-27 10:45:14.594Z129.372° SE
|